Hourly Data Report for December 10, 2017

All times are specified in Local Standard Time (LST). Add 1 hour to adjust for Daylight Saving Time where and when it is observed.

REVELSTOKE A
BRITISH COLUMBIA

50°58'00.000" N
118°11'00.000" W
444.70 m
1176745
71685
YRV

Download Data

Hourly Data (December 2017)
Hourly Data Report for December 10, 2017
Temp Definition
°C
Dew Point Temp Definition
°C
Rel Hum Definition
%
Wind Dir Definition
10's deg

Wind Spd Definition
km/h
Visibility Definition
km
Stn Press Definition
kPa
Hmdx Definition


Wind Chill Definition


Weather Definition


TIME
00:00 Legend Double Dagger -2.5 -6.9 72   0 16.1 98.55     LegendNANA
01:00 Legend Double Dagger -2.9 -7.1 73 27 5 16.1 98.56   -5 LegendNANA
02:00 Legend Double Dagger -2.8 -6.9 74 LegendMM 4 16.1 98.58   -4 LegendNANA
03:00 Legend Double Dagger -2.7 -6.5 76   0 16.1 98.67     LegendNANA
04:00 Legend Double Dagger -3.1 -7.8 70 30 9 16.1 98.68   -7 LegendNANA
05:00 Legend Double Dagger -2.9 -7.6 70   0 16.1 98.62     LegendNANA
06:00 Legend Double Dagger -2.8 -7.2 72 28 4 16.1 98.60   -4 LegendNANA
07:00 Legend Double Dagger -3.1 -8.2 68   0 16.1 98.61     LegendNANA
08:00 Legend Double Dagger -2.9 -7.4 72   0 16.1 98.52     LegendNANA
09:00 Legend Double Dagger -2.6 -7.3 70   0 16.1 98.59     LegendNANA
10:00 Legend Double Dagger -2.4 -7.3 69   0 16.1 98.70     LegendNANA
11:00 Legend Double Dagger -2.2 -7.3 68 32 5 16.1 98.73   -4 LegendNANA
12:00 Legend Double Dagger -1.9 -7.1 68 LegendMM 4 16.1 98.65   -3 LegendNANA
13:00 Legend Double Dagger -1.7 -6.7 69   0 16.1 98.57     LegendNANA
14:00 Legend Double Dagger -1.3 -6.3 69   0 16.1 98.56     LegendNANA
15:00 Legend Double Dagger -1.1 -5.9 70 14 5 16.1 98.55   -3 LegendNANA
16:00 Legend Double Dagger -1.4 -5.8 72 30 5 16.1 98.57   -3 LegendNANA
17:00 Legend Double Dagger -1.5 -5.4 75 30 4 16.1 98.61   -3 LegendNANA
18:00 Legend Double Dagger -1.7 -5.7 74 31 5 16.1 98.61   -4 LegendNANA
19:00 Legend Double Dagger -1.7 -5.7 74   0 16.1 98.56     LegendNANA
20:00 Legend Double Dagger -1.8 -5.4 77 32 5 16.1 98.57   -4 LegendNANA
21:00 Legend Double Dagger -2.1 -5.7 76   0 16.1 98.55     LegendNANA
22:00 Legend Double Dagger -2.2 -6.8 71 35 9 16.1 98.58   -6 LegendNANA
23:00 Legend Double Dagger -2.0 -6.0 74 LegendMM 4 16.1 98.62   -3 LegendNANA

Notes on Data Quality.

Legend

  • E = Estimated
  • M = Missing
  • NA = Not Available
  • ‡ = Partner data that is not subject to review by the National Climate Archives
Date modified: